Location: Doux
(49.5045°N, 4.4321°E)
Time: 13:31:10
(UTC+00:00)

SL-27 R/B - Pass Details

Date: 23 May 2024
Orbit: 329 x 353 km, 74.7° (Epoch: 16 June)

Event Time Altitude Azimuth Distance (km) Brightness Sun altitude
Exits shadow 02:41:28 14° 218° (SW) 1,062 3.6 -9.0°
Maximum altitude 02:43:40 53° 294° (WNW) 414 2.1 -8.8°
Drops below altitude 10° 02:46:23 10° 14° (NNE) 1,270 5.7 -8.5°
Sets 02:48:22 0° 19° (NNE) 2,111 7.2 -8.3°
